Terminal Aerodrome Forecast
Issued by NWS Tuscon, AZ

Home | Current Version | Previous Version | Text Only | Print | Product List | Glossary On
Versions: 1 2 3 4 5 6 7 8 9 10 11 12 13
172
FTUS45 KTWC 110520
TAFDUG
TAF
KDUG 110520Z 1106/1206 36008KT P6SM SCT250
     FM111000 VRB04KT P6SM SCT250
     FM112000 21006KT P6SM SKC=

USA.gov is the U.S. government's official web portal to all federal, state and local government web resources and services.